GEFSNGP_500_meanwind_096.txt.gz
Wind_Speed
8 8 7 7 8 8 9 11 13 14 15 16 17 18 19 21 22 24 27 29 31 33 35 36 37 37 37 37 38 38 39 40 40 40 40 39 39 38 37 37 37 37 37 37
8 8 7 8 8 9 11 12 13 14 15 16 18 19 20 21 23 26 28 30 33 35 36 37 37 37 37 38 39 39 40 40 41 41 40 39 38 37 37 37 36 36 36 35
8 8 8 8 8 9 11 13 14 15 16 17 18 19 20 22 24 27 30 32 34 36 37 37 37 37 38 39 40 40 40 41 41 41 40 38 37 37 37 37 36 35 34 34
9 9 8 8 10 11 12 13 15 16 17 18 19 19 21 23 25 28 31 33 35 36 37 37 38 38 39 40 40 41 40 40 41 40 39 37 36 37 36 35 35 34 33 33
9 9 8 9 11 12 13 14 15 16 17 18 18 20 22 24 26 29 31 34 35 36 37 38 38 39 40 40 41 41 40 40 41 40 38 37 36 36 36 35 35 33 32 32
10 9 8 9 11 13 14 14 15 16 17 18 19 20 22 25 27 29 32 34 35 36 37 38 39 39 40 40 40 40 40 40 41 39 38 36 36 36 36 35 34 33 32 31
10 10 10 11 12 14 14 15 15 16 17 18 20 21 23 25 28 30 32 34 35 36 38 38 39 40 40 40 40 40 40 40 41 39 38 37 36 37 36 35 34 32 31 31
11 11 12 13 14 15 15 16 17 17 18 19 21 22 24 26 29 30 32 34 35 37 38 39 39 39 40 40 40 41 40 40 41 39 38 37 36 36 36 35 34 32 31 30
11 12 13 14 15 16 16 17 18 18 19 20 22 23 25 27 29 31 32 34 35 37 38 39 39 40 39 40 41 41 41 41 41 40 38 37 37 36 35 35 34 33 31 29
13 13 14 15 16 17 18 18 19 19 20 21 22 24 26 27 29 31 33 34 36 37 38 39 39 39 39 40 41 41 41 41 40 39 38 37 37 36 35 35 34 32 31 29
15 15 15 16 17 18 18 19 20 20 21 22 23 24 26 27 29 31 33 35 36 37 38 38 39 39 40 41 42 41 41 41 40 39 38 37 37 36 35 34 34 33 31 29
17 17 17 17 18 18 19 20 20 21 22 22 23 25 27 28 30 32 33 35 36 37 38 39 39 39 40 41 42 41 41 40 40 39 38 37 36 35 34 34 34 33 31 29
19 19 18 19 19 19 20 21 21 22 23 23 25 26 28 29 30 32 33 35 36 37 38 39 39 40 41 41 42 41 41 40 40 39 37 36 36 35 33 33 33 32 30 29
21 20 20 20 20 21 21 22 22 23 24 25 26 27 28 29 30 31 33 35 36 37 38 39 40 41 42 41 41 41 40 40 39 39 37 36 35 34 33 32 31 30 29 28
22 22 21 21 22 22 23 23 23 24 26 26 26 27 29 30 31 33 34 35 37 38 39 40 41 42 42 42 41 40 40 39 39 38 37 36 34 34 33 32 31 30 29 28
23 23 23 23 24 24 25 25 25 26 27 27 28 29 30 31 32 34 35 37 38 39 40 41 41 41 42 41 41 40 39 38 38 37 36 35 34 33 32 31 30 29 28 27
26 26 26 26 26 27 27 27 27 28 29 30 30 31 32 33 34 35 37 37 39 40 42 42 42 42 42 41 40 39 38 37 37 36 35 34 33 32 30 29 28 27 27 27
28 28 29 29 29 30 30 30 31 31 32 32 33 33 34 35 37 38 39 39 40 42 43 43 43 42 42 40 40 38 37 36 35 34 33 33 32 30 29 28 27 26 25 25
30 30 31 31 32 32 33 33 34 34 34 35 35 36 38 38 40 42 42 42 43 43 44 44 43 43 42 40 39 37 35 34 34 33 32 31 30 29 27 26 25 24 23 23
32 32 33 33 34 35 35 36 38 38 37 37 39 40 41 42 43 44 44 44 44 45 45 44 44 42 41 39 38 36 34 33 32 32 30 29 28 27 25 24 23 21 21 21
34 35 35 36 37 38 38 39 40 41 41 42 43 44 45 45 46 46 47 46 46 46 45 44 43 42 41 38 36 34 33 32 31 30 28 27 26 25 24 22 20 19 19 19
38 39 39 40 40 40 41 42 43 44 45 47 48 48 48 48 48 49 48 47 47 46 45 43 42 41 40 37 34 32 31 30 29 28 26 25 24 23 21 20 19 17 17 17
41 42 42 43 44 44 45 46 47 48 49 49 50 50 51 51 50 50 49 48 48 47 45 44 42 41 38 35 33 31 29 29 28 26 24 23 22 21 19 18 17 16 15 15
45 45 46 47 47 48 49 49 50 51 52 52 52 52 52 52 51 51 50 49 48 46 44 42 41 39 36 34 32 30 28 27 26 24 23 21 20 19 18 16 15 13 13 13
49 49 50 50 51 52 52 53 53 54 54 54 53 53 53 53 51 50 49 48 47 45 42 40 39 37 34 32 30 29 27 25 24 22 21 20 19 18 16 14 13 12 11 10
52 52 53 54 54 55 55 55 55 55 55 54 54 53 53 52 51 49 48 47 45 42 40 38 36 34 32 30 29 27 25 23 22 21 19 18 16 15 14 13 11 10 9 8
55 55 56 57 57 58 58 58 57 57 56 55 54 53 52 51 49 48 46 44 42 40 38 36 34 33 31 30 29 26 24 22 20 19 17 15 14 13 13 11 10 9 7 6

GEFSNGP_500_meanwind_102.txt.gz
Wind_Speed
9 9 9 9 9 9 9 8 9 10 11 11 11 11 12 13 14 15 16 18 19 21 22 23 24 25 26 27 28 29 29 30 31 32 32 33 34 34 34 33 32 32 32 32
9 9 9 9 9 9 9 9 10 10 11 11 12 12 13 13 14 16 17 19 20 21 23 24 25 25 27 28 29 30 30 31 32 32 33 34 34 35 34 33 33 33 33 33
8 9 9 9 10 10 10 10 10 11 12 12 12 13 13 14 15 16 18 19 21 22 23 24 25 26 28 28 29 30 31 32 32 33 34 35 36 35 35 34 34 33 33 33
8 9 8 10 10 10 10 11 11 12 12 12 12 13 13 14 15 16 18 20 21 22 23 25 26 27 28 29 30 31 32 33 34 35 36 37 36 36 36 35 35 34 33 32
10 9 10 11 10 10 11 11 11 12 12 12 12 13 13 14 15 17 19 20 21 23 24 25 27 28 29 30 30 31 32 33 35 36 36 37 37 37 37 36 35 34 33 32
11 11 10 13 11 11 11 11 12 12 12 12 13 13 14 15 16 18 19 20 22 23 24 26 27 28 29 30 31 32 33 35 35 36 37 37 37 37 36 36 35 34 33 32
12 11 12 14 12 12 11 13 13 13 13 13 13 14 15 16 17 18 20 21 22 23 25 27 28 29 30 30 32 33 34 35 36 37 37 37 37 37 36 36 35 34 33 33
13 12 14 15 14 13 14 14 14 14 14 14 14 15 16 17 18 19 20 21 23 24 26 27 29 30 30 31 32 34 35 36 37 38 38 37 37 37 37 36 35 34 33 32
14 15 16 15 15 15 15 15 15 15 15 15 16 16 17 18 19 20 21 23 24 25 26 28 29 30 31 32 33 35 36 37 38 39 38 38 38 38 37 36 35 34 33 32
16 17 17 17 17 16 16 16 16 16 17 17 17 18 18 20 21 21 22 24 25 26 27 28 29 31 32 33 35 36 37 38 39 39 39 39 38 38 37 36 35 34 33 32
17 17 17 18 18 18 18 18 18 18 18 18 19 19 20 21 22 23 24 25 26 26 28 29 31 32 34 36 37 37 38 39 39 40 39 39 39 38 37 36 35 34 33 31
19 19 19 19 20 20 20 20 20 20 20 20 20 21 22 23 24 25 25 27 27 28 29 31 32 33 35 37 38 39 40 40 40 40 40 39 38 38 37 36 35 33 33 31
20 20 20 20 21 21 22 22 22 22 22 22 23 23 24 25 26 26 27 28 29 30 31 32 33 34 36 38 39 40 41 41 41 41 40 39 38 37 36 35 34 33 32 30
22 22 22 21 22 22 22 23 23 23 24 25 25 25 26 27 28 28 29 30 31 32 34 34 35 36 38 39 40 41 41 41 41 41 40 39 38 36 35 35 33 32 31 30
24 24 23 23 23 24 24 24 25 25 26 26 27 28 29 29 29 30 31 32 33 34 35 36 37 38 39 41 41 41 42 41 41 40 39 38 37 36 35 34 32 31 30 29
25 25 25 25 25 25 25 26 27 28 28 28 30 31 31 31 31 32 33 35 36 37 36 37 38 39 40 41 42 42 42 41 40 40 39 37 36 34 33 32 31 30 29 28
26 27 27 27 27 27 27 28 29 31 31 31 32 34 33 33 34 35 36 36 37 38 38 39 40 40 41 42 42 42 42 42 40 39 37 36 34 32 32 31 30 28 28 27
28 28 28 28 29 30 30 30 32 33 33 34 35 36 36 37 38 38 38 38 38 39 41 41 42 42 43 42 42 42 42 41 40 38 36 34 33 31 30 29 28 27 27 26
29 29 30 30 31 31 32 33 34 35 37 37 38 38 39 40 40 41 41 40 41 42 42 43 43 43 43 43 42 42 41 41 39 37 35 33 31 30 28 27 26 26 25 24
31 31 32 32 33 34 35 36 37 38 39 39 40 40 42 42 42 42 42 43 43 44 44 44 44 44 44 43 43 42 41 40 38 35 33 31 30 28 27 25 25 24 24 22
33 33 34 35 36 36 37 38 39 40 41 41 42 44 44 44 44 44 45 45 45 45 45 45 44 44 44 43 42 41 40 38 36 34 31 30 28 27 25 24 23 22 21 20
35 36 37 38 38 39 40 41 41 42 43 44 45 46 46 46 46 47 47 47 47 47 47 46 45 44 44 43 42 40 39 37 35 32 30 28 26 24 23 22 21 21 20 19
38 39 39 40 41 41 42 43 44 45 45 46 47 47 48 48 49 49 49 49 49 49 48 47 46 45 44 43 41 39 37 35 32 30 29 26 24 23 22 21 20 19 19 17
41 41 42 43 44 45 45 46 47 48 48 49 50 50 50 50 51 51 51 51 50 49 48 47 46 45 43 41 39 38 36 33 30 28 27 25 24 22 21 19 18 18 17 15
44 45 45 46 47 47 48 48 49 49 50 50 51 52 52 52 52 51 51 51 50 49 48 47 45 44 42 40 38 35 33 31 29 28 26 25 23 21 19 18 17 16 15 13
46 47 48 48 48 49 50 50 51 51 52 52 52 52 52 52 52 51 51 50 49 48 47 45 44 42 40 38 35 33 32 30 28 27 25 23 21 20 18 16 15 14 13 12
49 49 49 50 50 50 51 51 52 52 52 53 52 52 52 51 51 51 49 48 47 46 45 43 42 40 38 36 34 32 30 28 27 25 24 22 20 18 16 14 14 13 12 11

GEFSNGP_500_meanwind_108.txt.gz
Wind_Speed
11 8 7 7 8 10 10 9 10 12 14 18 16 15 16 16 15 15 15 15 16 17 18 19 20 21 22 22 23 25 25 26 28 29 30 31 32 33 34 34 34 34 34 34
10 9 8 8 10 11 11 11 12 13 16 19 16 16 17 16 15 15 15 16 17 17 18 20 21 21 22 23 24 25 26 28 29 31 32 33 33 34 35 35 35 35 35 35
10 10 11 11 11 11 11 13 13 14 17 18 17 16 16 16 16 15 16 16 17 18 19 20 21 22 22 24 25 26 27 29 30 32 33 34 35 35 36 36 37 36 36 35
12 12 12 10 10 11 12 13 15 16 17 18 17 17 16 16 16 16 16 17 18 18 19 20 21 22 23 24 26 27 29 30 31 33 34 35 36 36 37 37 37 37 36 36
14 14 12 12 13 14 13 13 15 16 17 17 17 17 16 15 16 16 16 18 18 19 20 21 22 23 24 26 27 28 30 31 32 34 35 36 37 37 38 38 38 37 37 37
15 15 15 14 15 15 15 16 16 17 17 16 16 17 17 16 16 17 17 18 19 20 21 21 22 24 25 26 28 29 30 32 33 35 36 37 38 39 39 39 38 38 38 38
16 16 16 17 16 16 16 17 17 18 18 17 17 18 18 18 17 18 18 19 20 21 21 22 23 24 25 27 28 29 30 33 35 36 37 38 39 39 40 39 39 39 39 38
17 17 19 21 19 20 20 18 17 19 20 20 19 18 18 18 18 18 19 20 21 21 22 23 24 25 26 28 29 30 32 33 36 37 38 39 40 41 40 40 39 39 39 38
22 21 20 20 22 22 21 19 19 20 21 20 20 19 19 19 19 20 21 21 22 22 23 24 25 26 28 29 31 32 34 35 36 37 38 40 41 41 40 40 40 39 39 38
24 25 24 20 17 20 21 21 20 21 21 21 21 21 21 20 20 21 22 22 23 24 25 26 27 28 29 30 32 33 35 35 37 38 40 41 42 42 41 40 40 40 39 38
23 25 24 20 21 22 23 22 21 21 21 22 22 22 23 23 22 23 23 24 24 25 26 27 28 29 31 32 33 34 35 36 37 39 41 41 41 42 41 40 40 40 39 38
27 26 25 25 24 23 23 22 22 22 23 23 23 24 25 24 24 24 25 25 26 27 28 29 30 31 33 34 35 35 36 38 39 40 41 42 42 42 41 40 40 39 38 37
28 27 26 25 25 23 23 24 24 24 24 25 25 25 26 26 26 26 27 28 28 29 29 30 32 33 35 35 36 37 38 39 40 41 41 42 42 42 41 40 40 39 37 36
27 27 26 26 26 25 25 26 26 26 26 26 26 26 27 28 28 29 29 30 30 32 33 34 35 36 37 37 37 38 39 40 41 41 42 42 42 42 42 40 39 38 37 35
27 28 28 27 26 27 27 27 28 28 28 28 28 28 28 30 31 32 32 33 33 34 35 37 38 38 38 38 38 40 40 41 42 42 42 42 42 42 41 40 38 37 36 35
28 28 28 28 28 28 29 29 29 30 31 31 31 31 31 32 33 34 35 36 36 37 38 39 39 40 40 39 40 41 41 42 43 43 43 43 43 42 41 39 37 36 35 34
29 29 29 30 30 30 30 30 31 32 32 33 33 33 34 34 35 36 37 38 39 40 41 41 41 41 41 41 42 42 43 43 43 43 43 43 42 42 40 38 37 36 35 33
31 31 31 31 31 31 31 32 33 33 33 34 35 35 35 36 37 38 38 39 40 40 41 41 41 42 42 43 43 43 44 44 45 44 43 42 42 41 39 37 36 34 33 31
31 31 32 32 32 32 33 33 34 35 35 36 36 36 37 38 39 40 40 41 41 42 42 42 44 45 44 44 44 45 45 45 45 44 43 42 41 40 38 36 35 33 31 30
32 32 33 33 34 34 35 35 35 36 36 37 37 38 40 40 41 41 42 43 43 44 44 45 46 46 46 46 46 46 47 46 45 44 43 42 41 39 37 35 33 32 30 29
33 34 34 35 35 36 36 37 37 38 38 39 40 40 41 42 43 44 44 45 46 46 46 46 47 47 48 48 48 47 47 47 45 44 42 41 40 38 35 34 32 30 29 28
34 35 36 36 36 37 37 38 39 39 40 41 41 43 43 44 45 46 46 47 48 47 47 48 48 49 49 49 49 48 47 47 45 43 42 40 38 36 34 32 30 28 27 26
35 36 36 37 37 38 39 40 41 41 42 43 44 45 45 46 46 47 48 49 49 50 50 50 50 50 50 50 49 48 47 46 44 42 40 38 36 34 32 31 28 27 25 24
37 38 38 39 40 41 41 42 43 44 45 45 46 47 47 48 49 49 50 50 51 51 51 51 51 51 50 50 49 47 46 44 42 40 38 36 34 33 31 30 27 26 24 23
39 39 40 41 41 42 43 44 45 46 46 47 48 49 50 50 51 51 52 52 52 52 52 52 51 50 49 48 47 46 44 42 40 38 36 35 33 32 30 28 26 24 22 21
41 41 42 43 44 44 45 46 47 48 49 49 50 50 51 51 52 52 53 53 52 52 52 52 50 49 48 47 46 44 42 40 38 37 35 34 32 30 28 27 25 23 21 20
42 43 44 45 46 46 46 47 48 48 49 49 50 50 51 51 51 52 52 51 51 51 50 49 49 48 47 46 44 43 40 38 37 35 33 31 29 27 26 24 23 21 20 19

GEFSNGP_500_meanwind_114.txt.gz
Wind_Speed
14 13 13 13 13 15 14 13 12 10 10 8 7 6 4 4 5 5 5 5 6 7 8 9 9 10 11 12 13 15 17 18 20 22 23 25 26 28 30 31 32 33 33 33
14 14 14 14 14 15 14 14 13 12 10 9 8 6 5 5 6 6 6 7 7 8 9 10 10 11 12 13 14 16 18 20 22 23 24 26 27 29 31 32 33 33 33 33
16 15 15 14 14 15 15 15 13 13 11 10 9 7 6 6 7 7 7 7 8 9 10 10 11 12 13 14 16 18 20 21 23 24 26 28 29 30 31 33 33 34 34 34
17 17 16 12 14 15 16 16 15 14 13 11 9 8 7 7 8 8 8 9 9 10 11 11 12 13 14 16 17 19 21 22 24 26 27 29 30 31 32 33 34 35 35 35
17 18 16 15 16 16 17 18 17 15 13 12 11 9 8 9 9 9 9 10 11 11 12 13 14 15 16 17 19 21 22 24 26 27 29 30 31 32 33 34 35 36 35 35
18 18 18 17 17 18 19 19 18 17 14 13 11 10 10 11 11 11 11 11 12 12 13 14 15 16 18 19 20 22 23 25 27 28 30 31 32 33 34 35 36 36 36 36
19 19 19 18 18 19 20 19 19 18 17 15 14 13 13 13 12 12 12 13 13 14 14 15 17 18 19 20 22 23 25 26 28 30 31 32 33 34 35 36 37 37 37 37
19 19 19 19 19 19 18 19 18 17 17 16 15 15 14 14 13 13 13 14 15 16 17 18 19 20 21 22 23 25 26 28 29 31 32 33 33 34 35 37 38 38 38 37
20 17 17 18 18 18 18 18 18 18 17 16 16 16 16 15 15 15 15 16 16 17 18 19 21 22 23 24 25 26 28 29 31 32 32 33 34 35 37 38 39 39 38 38
19 17 17 17 18 18 17 17 18 18 17 17 17 17 16 16 16 17 17 18 18 19 21 22 23 24 25 26 27 28 30 31 32 33 33 33 35 36 37 39 40 39 39 38
19 16 15 15 16 16 17 17 18 18 18 18 18 18 17 18 18 18 19 20 20 21 22 23 24 25 26 28 29 30 31 33 33 33 34 35 36 37 38 39 40 40 39 39
19 17 17 17 17 16 15 15 16 18 19 19 19 19 19 19 20 20 20 21 22 23 24 25 26 27 28 30 31 32 33 33 34 34 35 36 37 38 39 40 40 41 40 40
22 22 21 20 19 17 17 17 18 18 19 19 19 20 20 20 21 22 22 23 24 25 26 27 28 29 30 31 33 33 33 34 35 35 36 38 39 39 39 40 41 41 41 41
23 23 22 22 21 20 19 20 21 21 22 22 22 22 22 22 23 24 25 26 26 27 28 29 30 31 32 33 34 34 35 35 36 37 38 39 40 40 41 41 41 41 41 40
25 24 24 24 23 23 22 22 22 22 23 23 23 23 23 23 24 26 27 28 29 29 30 31 32 33 34 34 35 35 36 36 37 39 39 40 41 42 42 42 41 41 40 40
25 26 25 25 25 24 23 23 23 23 23 24 24 25 25 25 26 27 28 30 31 31 32 33 33 34 35 35 36 36 37 38 39 40 40 41 42 43 43 43 42 41 40 39
25 25 25 25 25 24 23 23 23 23 23 23 25 26 26 27 27 28 29 31 32 33 34 34 34 35 36 37 38 38 39 40 41 41 42 43 44 44 44 43 43 41 40 39
27 26 26 24 22 22 22 23 23 24 24 25 26 27 28 29 30 30 31 32 34 34 35 36 36 37 38 39 40 41 41 42 43 43 44 44 44 45 45 44 42 41 40 38
25 25 25 25 24 23 22 22 23 24 25 26 27 28 30 31 31 32 33 34 35 35 36 37 38 39 40 41 42 43 44 44 45 45 46 46 46 45 45 44 42 41 39 36
23 23 24 24 24 24 24 24 25 26 27 28 29 30 31 32 33 34 35 35 36 37 38 40 41 42 43 44 44 45 46 46 46 47 47 46 46 45 45 43 42 39 37 35
23 23 24 24 25 25 26 26 27 28 29 30 31 32 33 34 35 36 36 37 38 39 41 42 43 44 45 46 47 47 48 48 48 48 48 47 46 45 44 42 40 37 36 34
25 24 24 25 25 27 28 29 30 31 32 32 33 34 35 35 36 37 38 39 40 42 43 44 45 46 47 48 48 49 49 49 49 49 48 47 46 44 42 39 37 35 34 33
25 26 26 27 28 28 29 30 31 32 33 34 35 36 36 37 38 39 40 42 43 44 45 46 47 48 49 49 49 49 49 49 48 48 47 45 44 42 40 38 36 35 33 31
28 29 29 29 30 30 30 31 33 34 35 36 37 38 39 40 41 42 43 44 46 46 47 48 49 49 49 50 50 49 49 48 47 46 45 44 42 40 38 36 35 33 31 29
31 31 31 32 33 33 34 34 35 36 37 38 39 40 41 42 43 44 45 46 47 47 48 49 49 49 49 49 48 48 47 46 45 44 42 41 40 38 36 34 32 30 28 27
34 35 35 35 36 36 36 36 37 38 39 40 41 42 43 44 45 46 47 47 48 48 48 49 49 48 48 47 47 46 45 44 42 40 39 37 36 35 33 31 29 27 25 24
36 36 37 38 38 38 38 39 39 40 42 43 43 43 44 44 45 46 47 47 47 47 47 46 46 46 46 45 44 43 42 41 39 38 36 35 34 32 30 28 26 25 23 21